Location: Newenden
(51.0000°N, 0.6167°E)
Time: 20:25:47
(UTC+00:00)

Daily predictions for brighter satellites

Satellite Brightness Start Highest point End
(mag) Time Altitude Azimuth Time Altitude Azimuth Time Altitude Azimuth
Thor Agena Rocket 3.8 16:23:11 10° SE 16:28:08 46° ENE 16:33:03 10° N
CENTAUR R/B 2.9 16:22:42 10° WSW 16:28:30 65° NW 16:35:55 10° NE
USA 290 2.3 16:28:53 10° NNW 16:32:08 58° ENE 16:35:20 10° SE
Cosmos 1484 Rocket 2.5 16:29:09 10° SSE 16:32:37 63° ENE 16:36:05 10° N
Cosmos 1544 Rocket 3.9 16:28:48 10° SSE 16:33:01 48° E 16:37:18 10° NNE
SL-16 R/B 2.7 16:27:14 10° NNE 16:33:23 58° ESE 16:39:28 10° S
Cosmos 1844 Rocket 4.5 16:31:17 10° N 16:33:54 13° NNE 16:36:32 10° NE
Lacrosse 5 rocket 1.6 16:30:15 10° W 16:33:55 49° NNW 16:37:30 10° NE
Cosmos 1980 Rocket 4.0 16:33:32 10° ESE 16:35:15 11° E 16:36:58 10° ENE
Iridium 51 3.7 16:35:20 10° S 16:38:28 86° E 16:41:42 10° N
Lacrosse 4 Rocket 2.6 16:35:24 10° WSW 16:39:05 33° NW 16:42:46 10° NNE
BREEZE M DEB (TANK) 4.1 16:37:32 10° SSW 16:39:11 14° SSE 16:40:30 10° ESE
Meteor 1-27 4.4 16:35:34 10° SSW 16:41:22 82° W 16:47:10 10° N
CORIOLIS 4.3 16:37:09 10° SE 16:42:19 54° ENE 16:47:32 10° N
Cosmos 2263 Rocket 2.9 16:37:42 10° NNW 16:42:45 32° NE 16:47:49 10° ESE
Cosmos 2228 3.1 16:39:33 10° SSW 16:43:48 80° W 16:48:05 10° N
Cosmos 1777 Rocket 4.5 16:39:11 10° S 16:44:08 43° ESE 16:49:04 10° NE
CZ-2D R/B 3.7 16:46:15 10° SE 16:48:57 26° ENE 16:51:39 10° N
Okean 1-7 Rocket 3.9 16:46:10 10° N 16:50:22 41° ENE 16:54:30 10° SE
Cosmos 1455 Rocket 4.5 16:47:02 10° SW 16:51:06 38° WNW 16:55:13 10° N
Cosmos 1602 Rocket 3.5 16:47:59 10° N 16:52:22 61° ENE 16:56:40 10° SSE
Cosmos 1461 3.3 16:51:39 10° SSW 16:55:20 42° ESE 16:58:30 14° NE
Cosmos 1933 4.1 16:54:34 10° SSE 16:57:54 29° E 17:01:14 10° NNE
Cosmos 2227 Rocket 2.2 16:53:55 10° NNW 16:59:30 58° NE 17:05:04 10° SE
USA 215 3.6 16:53:50 11° ENE 16:59:57 55° N 17:06:19 10° W
Cosmos 1634 Rocket 4.3 16:54:06 10° SSW 17:00:15 69° WNW 17:06:26 10° N
IRS-1C 4.2 16:55:08 10° SE 17:00:19 55° ENE 17:05:31 10° N
YAOGAN 1 3.9 16:58:18 10° ESE 17:01:15 18° ENE 17:04:11 10° NNE
IRIDIUM 103 4.4 16:56:24 10° N 17:01:36 60° E 17:06:45 10° SSE
Cosmos 1743 2.3 16:59:40 10° NNW 17:02:57 84° W 17:06:10 10° S
NOSS 7 (H) 3.9 17:00:11 10° NW 17:03:06 77° NE 17:06:12 10° SE
Cosmos 1486 Rocket 4.0 16:58:35 10° SSW 17:03:47 77° ESE 17:09:03 10° NNE
Cosmos 2369 Rocket 4.1 16:59:34 10° W 17:03:50 21° NW 17:08:09 10° NNE
SJ-12 4.0 17:01:26 10° SE 17:05:03 45° ENE 17:08:41 10° N
Cosmos 2151 2.8 17:02:18 10° N 17:06:30 81° E 17:10:39 10° SSE
Cosmos 2360 4.2 17:02:12 10° SSW 17:07:55 80° ESE 17:13:41 10° NNE
Cosmos 2279 Rocket 4.1 17:05:37 10° SSW 17:11:50 80° W 17:18:07 10° N
Cosmos 1655 Rocket 4.2 17:06:15 10° N 17:12:14 45° ENE 17:18:09 10° SE
IGS 5A 4.0 17:10:11 10° S 17:14:05 58° W 17:18:02 10° NNW
Cosmos 1867 3.7 17:08:53 10° NW 17:14:23 83° SW 17:19:49 10° SE
Cosmos 1697 Rocket 3.0 17:09:25 10° S 17:14:44 46° ESE 17:19:15 14° NE
Cosmos 990 Rocket 4.4 17:10:27 10° S 17:15:12 40° ESE 17:19:09 15° NE
Cosmos 1953 Rocket 4.1 17:12:00 10° N 17:16:05 35° ENE 17:20:11 10° SE
MOS 1 Rocket 3.5 17:12:59 10° SSE 17:17:50 57° ENE 17:22:58 10° N
SAR-Lupe-4 3.4 17:14:54 10° SSE 17:18:26 67° ENE 17:21:59 10° N
IRIDIUM 106 4.3 17:14:42 10° N 17:19:58 83° E 17:25:11 10° S
NOSS 2-2 (D) 3.6 17:20:19 10° WSW 17:23:21 42° NW 17:25:11 19° NNE
Cosmos 1782 3.5 17:20:20 10° SSW 17:23:49 48° WNW 17:27:19 10° N
Cosmos 2084 Rocket 4.4 17:20:47 10° NW 17:24:51 48° SW 17:28:54 10° SSE
ARIANE 5 R/B 2.5 17:20:08 10° SSE 17:25:13 85° ENE 17:30:23 10° NNW
Cosmos 1825 Rocket 3.4 17:21:12 10° N 17:25:34 67° ENE 17:29:51 10° SSE
SAR-Lupe-1 3.9 17:25:42 10° SSE 17:29:18 78° ENE 17:32:56 10° NNW
Cosmos 2098 Rocket 3.8 17:27:48 10° SSW 17:32:02 59° WNW 17:37:02 10° N
Cosmos 1656 4.3 17:27:34 10° SW 17:33:07 57° NW 17:38:38 11° NNE
USA 81 4.4 17:28:16 10° N 17:33:15 40° ENE 17:38:11 10° SE
UNK 3.7 17:29:40 10° NNE 17:34:17 86° WNW 17:38:50 10° SSW
CZ-2D R/B 3.8 17:32:36 10° SE 17:36:32 41° ENE 17:40:26 10° N
NOSS 3-2 (A) 3.8 17:32:34 10° WSW 17:37:42 52° NW 17:42:25 17° NE
Gbstr 26 Del rocket 3.4 17:34:25 10° SW 17:38:14 41° SSE 17:39:37 29° ESE
NOSS 3-2 (C) 3.1 17:33:55 10° SW 17:39:03 88° SE 17:43:15 21° NE
SPOT 1/Viking Rocket 3.5 17:37:07 10° SSE 17:42:14 61° ENE 17:47:23 10° N
Cosmos 1076 Rocket 3.4 17:39:20 10° N 17:43:38 67° ENE 17:47:55 10° SSE
NOSS 2-2 (E) 3.9 17:40:55 10° WSW 17:43:51 34° NW 17:45:00 25° N
PSLV R/B 3.9 17:43:07 29° E 17:44:13 35° ENE 17:47:56 10° N
SMAP 4.0 17:39:47 10° S 17:44:19 51° W 17:48:54 10° NNW
[s.n.66845] 3.7 17:42:53 10° NNW 17:43:44 17° N 17:43:44 17° N
[s.n.66847] 3.7 17:43:19 10° NNW 17:44:11 17° N 17:44:11 17° N
Cosmos 2266 Rocket 4.4 17:40:04 10° NNW 17:46:10 65° W 17:52:08 10° S
[s.n.66846] 3.7 17:43:45 10° NNW 17:44:37 17° N 17:44:37 17° N
Cosmos 2082 3.9 17:41:13 10° NNW 17:46:44 47° NE 17:50:42 18° ESE
CZ-4C R/B 3.7 17:40:01 10° NW 17:46:50 56° SW 17:55:12 10° SSE
[s.n.66843] 3.7 17:44:17 10° NNW 17:45:08 17° N 17:45:08 17° N
[s.n.66844] 3.7 17:44:44 10° NNW 17:45:35 17° N 17:45:35 17° N
[s.n.66842] 3.7 17:45:16 10° NNW 17:46:06 17° N 17:46:06 17° N
SL-19 R/B 4.4 17:42:47 10° SE 17:47:58 48° ENE 17:53:28 10° N
[s.n.66841] 3.7 17:45:44 10° NNW 17:46:34 17° N 17:46:34 17° N
COSMO-SKYMED 1 3.5 17:49:12 27° ESE 17:49:12 27° ESE 17:51:57 10° SSE
[s.n.66840] 3.7 17:46:13 10° NNW 17:47:03 17° N 17:47:03 17° N
Landsat 7 4.4 17:44:31 10° S 17:49:06 59° W 17:53:43 10° NNW
[s.n.66838] 3.7 17:46:42 10° NNW 17:47:32 17° N 17:47:32 17° N
IRS-P3 4.1 17:44:27 10° SSE 17:49:47 85° WSW 17:55:09 10° NNW
[s.n.66839] 3.7 17:47:12 10° NNW 17:48:01 17° N 17:48:01 17° N
SJ-6F 4.4 17:45:57 10° SSE 17:49:56 82° WSW 17:54:00 10° NNW
Cosmos 2058 Rocket 3.6 17:46:08 10° SSE 17:50:14 37° E 17:50:45 36° ENE
[s.n.66837] 3.7 17:47:39 10° NNW 17:48:28 17° NNW 17:48:28 17° NNW
[s.n.66836] 3.8 17:48:09 10° NNW 17:48:58 17° NNW 17:48:58 17° NNW
[s.n.66835] 3.8 17:48:40 10° NNW 17:49:28 17° NNW 17:49:28 17° NNW
[s.n.66834] 3.8 17:49:09 10° NNW 17:49:57 17° NNW 17:49:57 17° NNW
Cosmos 2297 Rocket 4.1 17:46:52 10° NW 17:51:50 32° WSW 17:56:45 10° SSW
[s.n.66833] 3.8 17:49:36 10° NNW 17:50:23 17° NNW 17:50:23 17° NNW
[s.n.66832] 3.8 17:50:08 10° NNW 17:50:56 17° NNW 17:50:56 17° NNW
[s.n.66831] 3.8 17:50:33 10° NNW 17:51:20 17° NNW 17:51:20 17° NNW
[s.n.66830] 3.8 17:50:59 10° NNW 17:51:47 17° NNW 17:51:47 17° NNW
[s.n.66828] 3.8 17:51:25 10° NNW 17:52:12 17° NNW 17:52:12 17° NNW
[s.n.66829] 3.8 17:51:58 10° NNW 17:52:44 17° NNW 17:52:44 17° NNW
[s.n.66827] 3.8 17:52:29 10° NNW 17:53:15 17° NNW 17:53:15 17° NNW
[s.n.66826] 3.8 17:52:59 10° NNW 17:53:45 17° NNW 17:53:45 17° NNW
[s.n.66825] 3.9 17:53:26 10° NNW 17:54:11 16° NNW 17:54:11 16° NNW
[s.n.66824] 3.9 17:53:57 10° NNW 17:54:42 16° NNW 17:54:42 16° NNW
[s.n.66823] 3.9 17:54:28 10° NNW 17:55:12 16° NNW 17:55:12 16° NNW
[s.n.66822] 3.9 17:54:58 10° NNW 17:55:41 16° NNW 17:55:41 16° NNW
[s.n.66821] 3.9 17:55:26 10° NNW 17:56:10 16° NNW 17:56:10 16° NNW
Cosmos 1538 Rocket 3.9 17:53:56 10° NNW 17:59:15 83° ENE 18:04:35 10° SSE
Cosmos 1606 Rocket 3.8 17:56:55 10° SSW 18:01:19 69° WNW 18:05:40 11° N
Meteor 1-26 Rocket 4.3 17:59:00 10° SSE 18:04:06 45° E 18:05:35 36° NE
Lacrosse 5 rocket 2.2 18:08:08 10° WNW 18:11:16 30° N 18:11:16 30° N
Cosmos 1553 Rocket 4.1 18:05:41 10° SSE 18:11:31 47° E 18:14:51 25° NNE
Cosmos 2219 3.1 18:06:39 10° NNW 18:12:26 79° ENE 18:17:57 11° SSE
GEOS 3 Rocket 3.9 18:09:53 29° NNE 18:12:42 68° NW 18:18:02 10° WSW
BREEZE-M DEB (TANK) 3.1 18:11:08 10° WSW 18:12:05 27° SW 18:12:05 27° SW
Resurs 1-3 3.4 18:08:44 10° SSE 18:13:01 76° ENE 18:17:20 10° N
SL-16 R/B 4.0 18:11:13 10° N 18:16:41 33° WNW 18:22:06 10° WSW
Lacrosse 4 Rocket 3.9 18:17:31 10° NNW 18:18:07 10° NNW 18:18:43 10° NNW
Cosmos 1980 Rocket 2.1 18:12:32 10° SSW 18:18:07 65° ESE 18:19:44 45° NE
Cosmos 1844 Rocket 3.4 18:14:20 10° NNW 18:19:00 35° NE 18:19:00 35° NE
CENTAUR R/B 3.8 18:14:35 10° WNW 18:20:30 34° N 18:24:02 24° NNE
Meteor 2-20 4.4 18:15:48 10° S 18:21:58 87° W 18:28:10 10° N
USA 281 4.4 18:22:44 24° NNE 18:22:44 24° NNE 18:27:11 10° NNW
NOSS 2-3 (C) 3.5 18:21:13 10° SW 18:23:55 52° SSW 18:23:55 52° SSW
Spot 4 Rocket 4.0 18:19:44 10° SSE 18:24:50 82° WSW 18:30:00 10° NNW
Cosmos 1726 Rocket 4.3 18:20:41 10° SSW 18:25:15 56° WNW 18:28:51 16° N
Cosmos 1745 Rocket 4.3 18:19:45 10° N 18:24:48 42° NE 18:24:48 42° NE
Cosmos 2263 Rocket 2.7 18:21:27 10° NW 18:27:02 61° WSW 18:32:38 10° SSE
Cosmos 1898 Rocket 3.4 18:25:14 10° S 18:30:11 61° ESE 18:30:11 61° ESE
Cosmos 2369 4.0 18:25:40 10° S 18:30:42 48° SE 18:30:42 48° SE
Cosmos 1244 Rocket 4.4 18:25:05 10° N 18:31:25 89° E 18:37:37 10° S
Cosmos 1461 4.0 18:28:37 10° WSW 18:32:11 32° NW 18:32:37 31° NNW
Cosmos 44 Rocket 4.1 18:28:07 10° NNW 18:32:08 39° NNE 18:32:08 39° NNE
YAOGAN 1 2.9 18:32:27 10° S 18:36:41 63° W 18:40:56 10° NNW
SKYMED 2 3.8 18:36:02 46° N 18:37:10 66° WNW 18:41:28 10° SSW
Cosmos-2242 3.2 18:33:00 10° S 18:36:35 63° SSW 18:36:35 63° SSW
Meteor 1-17 Rocket 4.5 18:32:16 10° N 18:37:52 76° ENE 18:40:26 33° SSE
USA 238 DEB 3.4 18:33:36 10° SW 18:39:44 78° SE 18:41:14 56° ENE
USA 238 3.4 18:33:42 10° SW 18:39:51 77° SE 18:41:19 56° ENE
Cosmos 923 Rocket 3.8 18:35:54 10° NNW 18:41:09 84° ENE 18:41:32 76° SE
USA 215 3.3 18:41:10 51° ENE 18:42:30 60° NNE 18:48:57 10° WNW
Cosmos 372 Rocket 3.8 18:37:37 10° SSW 18:42:47 89° WNW 18:43:10 77° NNE
Cosmos 2227 Rocket 4.1 18:38:27 10° NW 18:43:12 29° WSW 18:47:58 10° SSW
Meteor 2-20 Rocket 4.4 18:37:27 10° S 18:43:41 84° W 18:48:13 19° N
Cosmos 1943 Rocket 4.4 18:42:01 10° N 18:42:28 11° N 18:42:28 11° N
SL-08 R/B 4.5 18:39:43 10° N 18:46:05 86° W 18:52:26 10° S
Cosmos 1937 Rocket 4.1 18:43:57 10° S 18:47:30 43° S 18:47:30 43° S
BREEZE-M DEB (TANK) 4.4 18:46:51 10° WNW 18:51:04 90° S 18:54:54 43° ESE
Cosmos 1386 Rocket 4.3 18:45:12 10° N 18:51:19 80° E 18:57:29 10° SSE
NOSS 2-3 (E) 4.5 18:47:55 10° WSW 18:50:28 39° W 18:50:28 39° W
NOSS 2-3 (D) 4.5 18:48:30 10° WSW 18:51:00 39° W 18:51:00 39° W
Cosmos 1697 Rocket 3.8 18:53:35 10° WSW 18:58:49 39° NW 19:00:59 28° N
Aureole 1 Rocket 3.8 18:54:49 10° SW 18:59:26 63° WNW 19:00:03 58° NNW
Resurs 01 Rocket 4.3 19:07:10 11° NNW 19:07:10 11° NNW 19:07:19 10° NNW
Cosmos 2278 Rocket 4.5 19:01:06 10° N 19:01:48 11° N 19:01:48 11° N
Cosmos 1680 Rocket 4.2 19:08:18 10° NNW 19:12:02 47° NW 19:12:02 47° NW
COSMOS 2455 4.2 19:10:12 10° SSW 19:12:49 26° S 19:12:49 26° S
Cosmos 1980 Rocket 3.9 19:57:36 10° WSW 20:01:30 28° WNW 20:01:30 28° WNW
CENTAUR R/B 4.2 20:06:31 10° NW 20:11:08 31° NNW 20:11:08 31° NNW
